Location: Newark
(40.9833°N, 0.0333°W)
Time: 17:56:57
(UTC+00:00)

Transit 4A - Pass Details

Date: 05 November 2020
Orbit: 862 x 982 km, 66.8° (Epoch: 28 November)

Event Time Altitude Azimuth Distance (km) Brightness Sun altitude
Rises 12:55:15 0° 200° (SSW) 3,576 12.1 30.7°
Reaches altitude 10° 12:57:45 10° 199° (SSW) 2,652 11.9 30.6°
Maximum altitude 13:03:55 71° 116° (ESE) 1,013 8.7 30.1°
Drops below altitude 10° 13:10:17 10° 34° (NNE) 2,731 9.9 29.7°
Sets 13:12:53 0° 32° (NNE) 3,689 10.5 29.5°
